Location: Bottenau
(48.5138°N, 8.0462°E)
Time: 09:45:20
(UTC+00:00)

RESURS DK-1 - Pass Details

Date: 18 April 2021
Orbit: 554 x 563 km, 69.9° (Epoch: 05 May)

Event Time Altitude Azimuth Distance (km) Brightness Sun altitude
Rises 20:16:06 0° 220° (SW) 2,728 5.9 -17.0°
Reaches altitude 10° 20:18:20 10° 225° (SW) 1,839 5.0 -17.3°
Maximum altitude 20:22:21 54° 303° (WNW) 688 3.1 -17.8°
Drops below altitude 10° 20:26:26 10° 22° (NNE) 1,858 5.3 -18.3°
Sets 20:28:42 0° 27° (NNE) 2,760 6.1 -18.6°
